Weather Roundup
Issued by NWS

Home | Current Version | Previous Version | Graphics & Text | Print | Product List | Glossary Off
Versions: 1 2 3 4 5 6 7 8 9 10 11 12 13 14 15 16 17 18 19 20 21 22 23 24 25 26 27 28 29 30 31 32 33 34 35 36 37 38 39 40 41 42 43 44 45 46 47 48 49 50

000
NZUS93 KARX 241859
HRRWXR

CURRENT HOURLY OBSERVATIONS ACROSS
MUCH OF THE UPPER MISSISSIPPI VALLEY
NATIONAL WEATHER SERVICE LA CROSSE WI
200 PM CDT FRI MAR 24 2017


...SOUTHEAST MINNESOTA...


CITY           SKY/WX    TMP DP  RH WIND       PRES   REMARKS
ROCHESTER      CLOUDY    40  39  97 N12       30.02R WCI  33
ROCHESTER/MAYO CLOUDY    40  40 100 N6        30.02R
WINONA         CLOUDY    41  37  87 CALM      30.02R
AUSTIN         MIX PCPN  41  37  87 N10       30.00R
ALBERT LEA     DRIZZLE   39  39 100 N12       30.01R WCI  32
DODGE CENTER   DRIZZLE   37  37 100 N10       30.03R WCI  30
PRESTON        CLOUDY    40  38  93 N8        30.00R FOG     WCI  34
OWATONNA       CLOUDY    39  36  87 N13       30.04R FOG     WCI  32
FARIBAULT      CLOUDY    39  39 100 N9        30.05R WCI  33
$$

...ELSEWHERE IN MINNESOTA...


CITY           SKY/WX    TMP DP  RH WIND       PRES   REMARKS
MINNEAPOLIS    CLOUDY    44  35  70 NE10      30.06R
INTNL FALLS    CLOUDY    38  26  62 N9        30.15R WCI  31
DULUTH         CLOUDY    37  34  89 N8        30.09R WCI  31
RED WING       DRIZZLE   43  37  81 NE7       30.04R
REDWOOD FALLS  CLOUDY    44  36  73 N8        30.08S
MANKATO        CLOUDY    41  37  86 N15       30.06R
WORTHINGTON    CLOUDY    38  36  92 NE16      30.06R WCI  29
FAIRMONT       CLOUDY    39  37  92 N14       30.06R WCI  31
$$

...SOUTHWEST WISCONSIN...


CITY           SKY/WX    TMP DP  RH WIND       PRES   REMARKS
LA CROSSE      CLOUDY    44  41  89 N6        30.00R FOG
PRAIRIE DU CHI CLOUDY    51  42  71 NW6       29.92F
BOSCOBEL       CLOUDY    57  45  64 N5        29.92R
LONE ROCK      NOT AVBL
PLATTEVILLE    CLOUDY    65  52  61 NW9       29.89R
FORT MC COY    CLOUDY    41  40  99 N6        29.98S FOG
CAMP DOUGLAS   CLOUDY    41  37  87 NE9       29.96S
MAUSTON-NEW LI LGT RAIN  42  39  91 N7        29.95R
VIROQUA        CLOUDY    43  41  91 N8        29.96R
WIS DELLS      CLOUDY    53  41  65 N8        29.91R
$$

...ELSEWHERE IN WISCONSIN...


CITY           SKY/WX    TMP DP  RH WIND       PRES   REMARKS
MILWAUKEE      PTSUNNY   54  42  64 NE10      29.92R
MADISON        CLOUDY    60  49  66 N6        29.89S
GREEN BAY      MIX PCPN  37  37 100 NE14      29.99R FOG     WCI  28
EAU CLAIRE     LGT RAIN  39  37  92 NE12G17   30.02S WCI  32
BLACK RVR FLS  RAIN      40  40 100 NE7       29.99R
MEDFORD        DRIZZLE   36  34  93 N10       30.00R WCI  28
WAUSAU         LGT RAIN  38  37  97 NE6       29.99R FOG     WCI  33
WIS RAPIDS     LGT RAIN  38  38 100 NE7       30.02R FOG     WCI  33
MARSHFIELD     RAIN      38  37  97 NE9       29.99R FOG     WCI  31
RICE LAKE      CLOUDY    40  36  86 N12       30.06R WCI  33
$$

...NORTHEAST IOWA...


CITY           SKY/WX    TMP DP  RH WIND       PRES   REMARKS
WATERLOO       CLOUDY    48  42  80 N8        29.94R
DUBUQUE        CLOUDY    70  47  43 W20G26    29.89R
DECORAH        CLOUDY    43  41  93 N13       29.95R
MASON CITY     CLOUDY    42  39  89 N16       29.98R
CHARLES CITY   CLOUDY    45  45 100 N17       29.94F
OELWEIN        CLOUDY    48  46  93 NE6       29.94R
$$

...ELSEWHERE IN IOWA...


CITY           SKY/WX    TMP DP  RH WIND       PRES   REMARKS
DES MOINES     LGT RAIN  49  46  90 CALM      29.93F FOG
IOWA CITY      CLOUDY    74  44  34 W22       29.89S
FORT DODGE     CLOUDY    43  37  81 N9G16     29.97R
MARSHALLTOWN   CLOUDY    49  46  90 N10       29.92F
CEDAR RAPIDS   LGT RAIN  65  49  56 NW21G31   29.89R
$$

...NORTHERN ILLINOIS...


CITY           SKY/WX    TMP DP  RH WIND       PRES   REMARKS
CHICAGO-OHARE  MOSUNNY   81  42  25 W23G32    29.88F
CHICAGO-MIDWAY MOSUNNY   80  45  28 SW25G39   29.90F
MOLINE         CLOUDY    76  40  27 W24G30    29.88R
ROCKFORD       CLOUDY    79  45  29 W21       29.89R
PEORIA         MOSUNNY   77  48  35 SW24G32   29.92F
$$

NOTE: "FAIR" INDICATES FEW OR NO CLOUDS BELOW 12,000 FEET WITH NO
SIGNIFICANT WEATHER AND/OR OBSTRUCTIONS TO VISIBILITY. WIND
SPEEDS ARE IN MILES-PER-HOUR.




USA.gov is the U.S. government's official web portal to all federal, state and local government web resources and services.